Tracking 29892 objects as of 21-Nov-2024
HD Live streaming from Space Station
objects crossing your sky now

METEOR 3-6

Track METEOR 3-6 now!
10-day predictions
METEOR 3-6 is classified as:


NORAD ID: 22969
Int'l Code: 1994-003A
Perigee: 1,191.9 km
Apogee: 1,214.4 km
Inclination: 82.6 °
Period: 109.3 minutes
Semi major axis: 7574 km
RCS: 4.6195 m2 (large)
Launch date: January 25, 1994
Source: Commonwealth of Independent States (former USSR) (CIS)
Launch site: PLESETSK MISSILE AND SPACE COMPLEX (PKMTR)
Your satellite tracking list
Your tracking list is empty




NASA's NSSDC Master Catalog

Two Line Element Set (TLE):
1 22969U 94003A   24325.31179311  .00000159  00000-0  38069-3 0  9990
2 22969  82.5596 132.4199 0014828 198.5616 161.4968 13.17041566481690
Source of the keplerian elements: AFSPC